owner,sensor,date,latitude,longitude,vertical_datum,wind_speed,wind_to_direction,wind_speed_of_gust,qcFlag 
WAVCIS,ioos:station:WAVCIS:CSI15:1,2012-11-01T00:00:00Z,28.8332,-90.8320,10.0,3.167,192.0,,'11111222,11111222,99999999' 
WAVCIS,ioos:station:WAVCIS:CSI15:1,2012-11-01T01:00:00Z,28.8332,-90.8320,10.0,4.285,177.0,,'11111222,11111222,99999999' 
WAVCIS,ioos:station:WAVCIS:CSI15:1,2012-11-01T02:00:00Z,28.8332,-90.8320,10.0,4.317,193.0,,'11111222,11111222,99999999' 
WAVCIS,ioos:station:WAVCIS:CSI15:1,2012-11-01T03:00:00Z,28.8332,-90.8320,10.0,4.031,222.0,,'11111222,11111222,99999999' 
WAVCIS,ioos:station:WAVCIS:CSI15:1,2012-11-01T04:00:00Z,28.8332,-90.8320,10.0,4.68,219.0,,'11111222,11111222,99999999' 
WAVCIS,ioos:station:WAVCIS:CSI15:1,2012-11-01T05:00:00Z,28.8332,-90.8320,10.0,5.925,228.0,,'11111222,11111222,99999999' 
WAVCIS,ioos:station:WAVCIS:CSI15:1,2012-11-01T06:00:00Z,28.8332,-90.8320,10.0,6.325,228.0,,'11111222,11111222,99999999' 
WAVCIS,ioos:station:WAVCIS:CSI15:1,2012-11-01T07:00:00Z,28.8332,-90.8320,10.0,5.39,239.0,,'11111222,11111222,99999999' 
WAVCIS,ioos:station:WAVCIS:CSI15:1,2012-11-01T08:00:00Z,28.8332,-90.8320,10.0,6.11,236.0,,'11111222,11111222,99999999' 
WAVCIS,ioos:station:WAVCIS:CSI15:1,2012-11-01T09:00:00Z,28.8332,-90.8320,10.0,6.952,235.0,,'11111222,11111222,99999999' 
WAVCIS,ioos:station:WAVCIS:CSI15:1,2012-11-01T10:00:00Z,28.8332,-90.8320,10.0,6.327,238.0,,'11111222,11111222,99999999' 
WAVCIS,ioos:station:WAVCIS:CSI15:1,2012-11-01T11:00:00Z,28.8332,-90.8320,10.0,5.295,253.0,,'11111222,11111222,99999999' 
WAVCIS,ioos:station:WAVCIS:CSI15:1,2012-11-01T12:00:00Z,28.8332,-90.8320,10.0,3.838,299.0,,'11111222,11111222,99999999' 
WAVCIS,ioos:station:WAVCIS:CSI15:1,2012-11-01T13:00:00Z,28.8332,-90.8320,10.0,5.397,294.0,,'11111222,11111222,99999999' 
WAVCIS,ioos:station:WAVCIS:CSI15:1,2012-11-01T14:00:00Z,28.8332,-90.8320,10.0,4.179,323.0,,'11111222,11111222,99999999' 
WAVCIS,ioos:station:WAVCIS:CSI15:1,2012-11-01T15:00:00Z,28.8332,-90.8320,10.0,3.586,345.0,,'11111222,11111222,99999999' 
WAVCIS,ioos:station:WAVCIS:CSI15:1,2012-11-01T16:00:00Z,28.8332,-90.8320,10.0,2.762,319.0,,'11111222,11111222,99999999' 
WAVCIS,ioos:station:WAVCIS:CSI15:1,2012-11-01T17:00:00Z,28.8332,-90.8320,10.0,2.36,309.0,,'11111222,11111222,99999999' 
WAVCIS,ioos:station:WAVCIS:CSI15:1,2012-11-01T18:00:00Z,28.8332,-90.8320,10.0,2.534,289.0,,'11111222,11111222,99999999' 
WAVCIS,ioos:station:WAVCIS:CSI15:1,2012-11-01T19:00:00Z,28.8332,-90.8320,10.0,2.747,275.0,,'11111222,11111222,99999999' 
WAVCIS,ioos:station:WAVCIS:CSI15:1,2012-11-01T20:00:00Z,28.8332,-90.8320,10.0,3.771,271.0,,'11111222,11111222,99999999' 
WAVCIS,ioos:station:WAVCIS:CSI15:1,2012-11-01T21:00:00Z,28.8332,-90.8320,10.0,3.367,253.0,,'11111222,11111222,99999999' 
WAVCIS,ioos:station:WAVCIS:CSI15:1,2012-11-01T22:00:00Z,28.8332,-90.8320,10.0,3.193,236.0,,'11111222,11111222,99999999' 
WAVCIS,ioos:station:WAVCIS:CSI15:1,2012-11-01T23:00:00Z,28.8332,-90.8320,10.0,3.494,228.0,,'11111222,11111222,99999999' 
WAVCIS,ioos:station:WAVCIS:CSI15:1,2012-11-02T00:00:00Z,28.8332,-90.8320,10.0,3.633,217.0,,'11111222,11111222,99999999' 
WAVCIS,ioos:station:WAVCIS:CSI15:1,2012-11-02T01:00:00Z,28.8332,-90.8320,10.0,4.559,223.0,,'11111222,11111222,99999999' 
WAVCIS,ioos:station:WAVCIS:CSI15:1,2012-11-02T02:00:00Z,28.8332,-90.8320,10.0,4.935,218.0,,'11111222,11111222,99999999' 
WAVCIS,ioos:station:WAVCIS:CSI15:1,2012-11-02T03:00:00Z,28.8332,-90.8320,10.0,5.74,213.0,,'11111222,11111222,99999999' 
WAVCIS,ioos:station:WAVCIS:CSI15:1,2012-11-02T04:00:00Z,28.8332,-90.8320,10.0,5.571,215.0,,'11111222,11111222,99999999' 
WAVCIS,ioos:station:WAVCIS:CSI15:1,2012-11-02T05:00:00Z,28.8332,-90.8320,10.0,6.258,209.0,,'11111222,11111222,99999999' 
WAVCIS,ioos:station:WAVCIS:CSI15:1,2012-11-02T06:00:00Z,28.8332,-90.8320,10.0,5.573,209.0,,'11111222,11111222,99999999' 
WAVCIS,ioos:station:WAVCIS:CSI15:1,2012-11-02T07:00:00Z,28.8332,-90.8320,10.0,5.875,206.0,,'11111222,11111222,99999999' 
WAVCIS,ioos:station:WAVCIS:CSI15:1,2012-11-02T08:00:00Z,28.8332,-90.8320,10.0,5.043,201.0,,'11111222,11111222,99999999' 
WAVCIS,ioos:station:WAVCIS:CSI15:1,2012-11-02T09:00:00Z,28.8332,-90.8320,10.0,4.361,206.0,,'11111222,11111222,99999999' 
WAVCIS,ioos:station:WAVCIS:CSI15:1,2012-11-02T10:00:00Z,28.8332,-90.8320,10.0,3.916,208.0,,'11111222,11111222,99999999' 
WAVCIS,ioos:station:WAVCIS:CSI15:1,2012-11-02T11:00:00Z,28.8332,-90.8320,10.0,4.069,213.0,,'11111222,11111222,99999999' 
WAVCIS,ioos:station:WAVCIS:CSI15:1,2012-11-02T12:00:00Z,28.8332,-90.8320,10.0,3.278,225.0,,'11111222,11111222,99999999' 
WAVCIS,ioos:station:WAVCIS:CSI15:1,2012-11-02T13:00:00Z,28.8332,-90.8320,10.0,3.264,220.0,,'11111222,11111222,99999999' 
WAVCIS,ioos:station:WAVCIS:CSI15:1,2012-11-02T14:00:00Z,28.8332,-90.8320,10.0,2.493,217.0,,'11111222,11111222,99999999' 
WAVCIS,ioos:station:WAVCIS:CSI15:1,2012-11-02T15:00:00Z,28.8332,-90.8320,10.0,1.801,209.0,,'11111222,11111222,99999999' 
WAVCIS,ioos:station:WAVCIS:CSI15:1,2012-11-02T16:00:00Z,28.8332,-90.8320,10.0,1.162,204.0,,'11111222,11111222,99999999' 
WAVCIS,ioos:station:WAVCIS:CSI15:1,2012-11-02T17:00:00Z,28.8332,-90.8320,10.0,0.732,204.0,,'11111222,11111222,99999999' 
WAVCIS,ioos:station:WAVCIS:CSI15:1,2012-11-02T18:00:00Z,28.8332,-90.8320,10.0,1.506,200.0,,'11111222,11111222,99999999' 
WAVCIS,ioos:station:WAVCIS:CSI15:1,2012-11-02T19:00:00Z,28.8332,-90.8320,10.0,1.139,229.0,,'11111222,11111222,99999999' 
WAVCIS,ioos:station:WAVCIS:CSI15:1,2012-11-02T20:00:00Z,28.8332,-90.8320,10.0,0.765,246.0,,'11111222,11111222,99999999' 
WAVCIS,ioos:station:WAVCIS:CSI15:1,2012-11-02T21:00:00Z,28.8332,-90.8320,10.0,0.786,250.0,,'11111222,11111222,99999999' 
WAVCIS,ioos:station:WAVCIS:CSI15:1,2012-11-02T22:00:00Z,28.8332,-90.8320,10.0,0.318,351.0,,'11111222,11111222,99999999' 
WAVCIS,ioos:station:WAVCIS:CSI15:1,2012-11-02T23:00:00Z,28.8332,-90.8320,10.0,1.017,346.0,,'11111222,11111222,99999999' 
WAVCIS,ioos:station:WAVCIS:CSI15:1,2012-11-03T00:00:00Z,28.8332,-90.8320,10.0,1.034,109.0,,'11111222,11111222,99999999' 
WAVCIS,ioos:station:WAVCIS:CSI15:1,2012-11-03T01:00:00Z,28.8332,-90.8320,10.0,1.36,110.0,,'11111222,11111222,99999999' 
WAVCIS,ioos:station:WAVCIS:CSI15:1,2012-11-03T02:00:00Z,28.8332,-90.8320,10.0,1.903,113.0,,'11111222,11111222,99999999' 
WAVCIS,ioos:station:WAVCIS:CSI15:1,2012-11-03T03:00:00Z,28.8332,-90.8320,10.0,2.53,125.0,,'11111222,11111222,99999999' 
WAVCIS,ioos:station:WAVCIS:CSI15:1,2012-11-03T04:00:00Z,28.8332,-90.8320,10.0,2.737,140.0,,'11111222,11111222,99999999' 
WAVCIS,ioos:station:WAVCIS:CSI15:1,2012-11-03T05:00:00Z,28.8332,-90.8320,10.0,2.681,152.0,,'11111222,11111222,99999999' 
WAVCIS,ioos:station:WAVCIS:CSI15:1,2012-11-03T06:00:00Z,28.8332,-90.8320,10.0,2.552,158.0,,'11111222,11111222,99999999' 
WAVCIS,ioos:station:WAVCIS:CSI15:1,2012-11-03T07:00:00Z,28.8332,-90.8320,10.0,2.309,144.0,,'11111222,11111222,99999999' 
WAVCIS,ioos:station:WAVCIS:CSI15:1,2012-11-03T08:00:00Z,28.8332,-90.8320,10.0,2.447,153.0,,'11111222,11111222,99999999' 
WAVCIS,ioos:station:WAVCIS:CSI15:1,2012-11-03T09:00:00Z,28.8332,-90.8320,10.0,1.545,159.0,,'11111222,11111222,99999999' 
WAVCIS,ioos:station:WAVCIS:CSI15:1,2012-11-03T10:00:00Z,28.8332,-90.8320,10.0,1.485,155.0,,'11111222,11111222,99999999' 
WAVCIS,ioos:station:WAVCIS:CSI15:1,2012-11-03T11:00:00Z,28.8332,-90.8320,10.0,1.282,141.0,,'11111222,11111222,99999999' 
WAVCIS,ioos:station:WAVCIS:CSI15:1,2012-11-03T12:00:00Z,28.8332,-90.8320,10.0,1.464,136.0,,'11111222,11111222,99999999' 
WAVCIS,ioos:station:WAVCIS:CSI15:1,2012-11-03T13:00:00Z,28.8332,-90.8320,10.0,2.432,129.0,,'11111222,11111222,99999999' 
WAVCIS,ioos:station:WAVCIS:CSI15:1,2012-11-03T14:00:00Z,28.8332,-90.8320,10.0,2.307,146.0,,'11111222,11111222,99999999' 
WAVCIS,ioos:station:WAVCIS:CSI15:1,2012-11-03T15:00:00Z,28.8332,-90.8320,10.0,1.573,141.0,,'11111222,11111222,99999999' 
WAVCIS,ioos:station:WAVCIS:CSI15:1,2012-11-03T16:00:00Z,28.8332,-90.8320,10.0,1.387,128.0,,'11111222,11111222,99999999' 
WAVCIS,ioos:station:WAVCIS:CSI15:1,2012-11-03T17:00:00Z,28.8332,-90.8320,10.0,1.803,131.0,,'11111222,11111222,99999999' 
WAVCIS,ioos:station:WAVCIS:CSI15:1,2012-11-03T18:00:00Z,28.8332,-90.8320,10.0,1.766,123.0,,'11111222,11111222,99999999' 
WAVCIS,ioos:station:WAVCIS:CSI15:1,2012-11-03T19:00:00Z,28.8332,-90.8320,10.0,1.868,119.0,,'11111222,11111222,99999999' 
WAVCIS,ioos:station:WAVCIS:CSI15:1,2012-11-03T20:00:00Z,28.8332,-90.8320,10.0,2.12,124.0,,'11111222,11111222,99999999' 
WAVCIS,ioos:station:WAVCIS:CSI15:1,2012-11-03T21:00:00Z,28.8332,-90.8320,10.0,2.861,133.0,,'11111222,11111222,99999999' 
WAVCIS,ioos:station:WAVCIS:CSI15:1,2012-11-03T22:00:00Z,28.8332,-90.8320,10.0,2.943,127.0,,'11111222,11111222,99999999' 
WAVCIS,ioos:station:WAVCIS:CSI15:1,2012-11-03T23:00:00Z,28.8332,-90.8320,10.0,3.722,126.0,,'11111222,11111222,99999999' 
WAVCIS,ioos:station:WAVCIS:CSI15:1,2012-11-04T00:00:00Z,28.8332,-90.8320,10.0,3.758,135.0,,'11111222,11111222,99999999' 
WAVCIS,ioos:station:WAVCIS:CSI15:1,2012-11-04T01:00:00Z,28.8332,-90.8320,10.0,3.353,136.0,,'11111222,11111222,99999999' 
WAVCIS,ioos:station:WAVCIS:CSI15:1,2012-11-04T02:00:00Z,28.8332,-90.8320,10.0,3.241,132.0,,'11111222,11111222,99999999' 
WAVCIS,ioos:station:WAVCIS:CSI15:1,2012-11-04T03:00:00Z,28.8332,-90.8320,10.0,3.045,131.0,,'11111222,11111222,99999999' 
WAVCIS,ioos:station:WAVCIS:CSI15:1,2012-11-04T04:00:00Z,28.8332,-90.8320,10.0,3.451,137.0,,'11111222,11111222,99999999' 
WAVCIS,ioos:station:WAVCIS:CSI15:1,2012-11-04T05:00:00Z,28.8332,-90.8320,10.0,4.373,144.0,,'11111222,11111222,99999999' 
WAVCIS,ioos:station:WAVCIS:CSI15:1,2012-11-04T06:00:00Z,28.8332,-90.8320,10.0,4.117,144.0,,'11111222,11111222,99999999' 
WAVCIS,ioos:station:WAVCIS:CSI15:1,2012-11-04T07:00:00Z,28.8332,-90.8320,10.0,4.553,152.0,,'11111222,11111222,99999999' 
WAVCIS,ioos:station:WAVCIS:CSI15:1,2012-11-04T08:00:00Z,28.8332,-90.8320,10.0,4.302,157.0,,'11111222,11111222,99999999' 
WAVCIS,ioos:station:WAVCIS:CSI15:1,2012-11-04T09:00:00Z,28.8332,-90.8320,10.0,4.519,163.0,,'11111222,11111222,99999999' 
WAVCIS,ioos:station:WAVCIS:CSI15:1,2012-11-04T10:00:00Z,28.8332,-90.8320,10.0,4.11,145.0,,'11111222,11111222,99999999' 
WAVCIS,ioos:station:WAVCIS:CSI15:1,2012-11-04T11:00:00Z,28.8332,-90.8320,10.0,3.554,155.0,,'11111222,11111222,99999999' 
WAVCIS,ioos:station:WAVCIS:CSI15:1,2012-11-04T12:00:00Z,28.8332,-90.8320,10.0,3.333,159.0,,'11111222,11111222,99999999' 
WAVCIS,ioos:station:WAVCIS:CSI15:1,2012-11-04T13:00:00Z,28.8332,-90.8320,10.0,2.39,151.0,,'11111222,11111222,99999999' 
WAVCIS,ioos:station:WAVCIS:CSI15:1,2012-11-04T14:00:00Z,28.8332,-90.8320,10.0,2.192,131.0,,'11111222,11111222,99999999' 
WAVCIS,ioos:station:WAVCIS:CSI15:1,2012-11-04T15:00:00Z,28.8332,-90.8320,10.0,2.371,116.0,,'11111222,11111222,99999999' 
WAVCIS,ioos:station:WAVCIS:CSI15:1,2012-11-04T16:00:00Z,28.8332,-90.8320,10.0,2.301,115.0,,'11111222,11111222,99999999' 
WAVCIS,ioos:station:WAVCIS:CSI15:1,2012-11-04T17:00:00Z,28.8332,-90.8320,10.0,1.617,81.0,,'11111222,11111222,99999999' 
WAVCIS,ioos:station:WAVCIS:CSI15:1,2012-11-04T18:00:00Z,28.8332,-90.8320,10.0,2.018,126.0,,'11111222,11111222,99999999' 
WAVCIS,ioos:station:WAVCIS:CSI15:1,2012-11-04T19:00:00Z,28.8332,-90.8320,10.0,2.877,174.0,,'11111222,11111222,99999999' 
WAVCIS,ioos:station:WAVCIS:CSI15:1,2012-11-04T20:00:00Z,28.8332,-90.8320,10.0,5.877,283.0,,'11111222,11111222,99999999' 
WAVCIS,ioos:station:WAVCIS:CSI15:1,2012-11-04T21:00:00Z,28.8332,-90.8320,10.0,3.238,303.0,,'11111222,11111222,99999999' 
WAVCIS,ioos:station:WAVCIS:CSI15:1,2012-11-04T22:00:00Z,28.8332,-90.8320,10.0,8.41,18.0,,'11111222,11111222,99999999' 
WAVCIS,ioos:station:WAVCIS:CSI15:1,2012-11-04T23:00:00Z,28.8332,-90.8320,10.0,7.38,52.0,,'11111222,11111222,99999999' 
WAVCIS,ioos:station:WAVCIS:CSI15:1,2012-11-05T00:00:00Z,28.8332,-90.8320,10.0,7.46,58.0,,'11111222,11111222,99999999' 
WAVCIS,ioos:station:WAVCIS:CSI15:1,2012-11-05T01:00:00Z,28.8332,-90.8320,10.0,6.19,78.0,,'11111222,11111222,99999999' 
WAVCIS,ioos:station:WAVCIS:CSI15:1,2012-11-05T02:00:00Z,28.8332,-90.8320,10.0,5.569,84.0,,'11111222,11111222,99999999' 
WAVCIS,ioos:station:WAVCIS:CSI15:1,2012-11-05T03:00:00Z,28.8332,-90.8320,10.0,4.578,90.0,,'11111222,11111222,99999999' 
WAVCIS,ioos:station:WAVCIS:CSI15:1,2012-11-05T04:00:00Z,28.8332,-90.8320,10.0,3.504,102.0,,'11111222,11111222,99999999' 
WAVCIS,ioos:station:WAVCIS:CSI15:1,2012-11-05T05:00:00Z,28.8332,-90.8320,10.0,2.433,109.0,,'11111222,11111222,99999999' 
WAVCIS,ioos:station:WAVCIS:CSI15:1,2012-11-05T06:00:00Z,28.8332,-90.8320,10.0,1.38,89.0,,'11111222,11111222,99999999' 
WAVCIS,ioos:station:WAVCIS:CSI15:1,2012-11-05T07:00:00Z,28.8332,-90.8320,10.0,3.673,1.0,,'11111222,11111222,99999999' 
WAVCIS,ioos:station:WAVCIS:CSI15:1,2012-11-05T08:00:00Z,28.8332,-90.8320,10.0,6.057,9.0,,'11111222,11111222,99999999' 
WAVCIS,ioos:station:WAVCIS:CSI15:1,2012-11-05T09:00:00Z,28.8332,-90.8320,10.0,6.001,13.0,,'11111222,11111222,99999999' 
WAVCIS,ioos:station:WAVCIS:CSI15:1,2012-11-05T10:00:00Z,28.8332,-90.8320,10.0,5.699,14.0,,'11111222,11111222,99999999' 
WAVCIS,ioos:station:WAVCIS:CSI15:1,2012-11-05T11:00:00Z,28.8332,-90.8320,10.0,5.961,355.0,,'11111222,11111222,99999999' 
WAVCIS,ioos:station:WAVCIS:CSI15:1,2012-11-05T12:00:00Z,28.8332,-90.8320,10.0,5.801,9.0,,'11111222,11111222,99999999' 
WAVCIS,ioos:station:WAVCIS:CSI15:1,2012-11-05T13:00:00Z,28.8332,-90.8320,10.0,5.781,12.0,,'11111222,11111222,99999999' 
WAVCIS,ioos:station:WAVCIS:CSI15:1,2012-11-05T14:00:00Z,28.8332,-90.8320,10.0,4.576,19.0,,'11111222,11111222,99999999' 
WAVCIS,ioos:station:WAVCIS:CSI15:1,2012-11-05T15:00:00Z,28.8332,-90.8320,10.0,3.761,36.0,,'11111222,11111222,99999999' 
WAVCIS,ioos:station:WAVCIS:CSI15:1,2012-11-05T16:00:00Z,28.8332,-90.8320,10.0,2.699,32.0,,'11111222,11111222,99999999' 
WAVCIS,ioos:station:WAVCIS:CSI15:1,2012-11-05T17:00:00Z,28.8332,-90.8320,10.0,2.276,12.0,,'11111222,11111222,99999999' 
WAVCIS,ioos:station:WAVCIS:CSI15:1,2012-11-05T18:00:00Z,28.8332,-90.8320,10.0,1.112,20.0,,'11111222,11111222,99999999' 
WAVCIS,ioos:station:WAVCIS:CSI15:1,2012-11-05T19:00:00Z,28.8332,-90.8320,10.0,0.825,229.0,,'11111222,11111222,99999999' 
WAVCIS,ioos:station:WAVCIS:CSI15:1,2012-11-05T20:00:00Z,28.8332,-90.8320,10.0,1.05,209.0,,'11111222,11111222,99999999' 
WAVCIS,ioos:station:WAVCIS:CSI15:1,2012-11-05T21:00:00Z,28.8332,-90.8320,10.0,1.854,175.0,,'11111222,11111222,99999999' 
WAVCIS,ioos:station:WAVCIS:CSI15:1,2012-11-05T22:00:00Z,28.8332,-90.8320,10.0,2.667,194.0,,'11111222,11111222,99999999' 
WAVCIS,ioos:station:WAVCIS:CSI15:1,2012-11-05T23:00:00Z,28.8332,-90.8320,10.0,3.082,197.0,,'11111222,11111222,99999999' 
WAVCIS,ioos:station:WAVCIS:CSI15:1,2012-11-06T00:00:00Z,28.8332,-90.8320,10.0,4.138,201.0,,'11111222,11111222,99999999' 
WAVCIS,ioos:station:WAVCIS:CSI15:1,2012-11-06T01:00:00Z,28.8332,-90.8320,10.0,4.727,199.0,,'11111222,11111222,99999999' 
WAVCIS,ioos:station:WAVCIS:CSI15:1,2012-11-06T02:00:00Z,28.8332,-90.8320,10.0,5.314,190.0,,'11111222,11111222,99999999' 
WAVCIS,ioos:station:WAVCIS:CSI15:1,2012-11-06T03:00:00Z,28.8332,-90.8320,10.0,6.785,195.0,,'11111222,11111222,99999999' 
WAVCIS,ioos:station:WAVCIS:CSI15:1,2012-11-06T04:00:00Z,28.8332,-90.8320,10.0,5.663,202.0,,'11111222,11111222,99999999' 
WAVCIS,ioos:station:WAVCIS:CSI15:1,2012-11-06T05:00:00Z,28.8332,-90.8320,10.0,7.62,356.0,,'11111222,11111222,99999999' 
WAVCIS,ioos:station:WAVCIS:CSI15:1,2012-11-06T06:00:00Z,28.8332,-90.8320,10.0,6.67,314.0,,'11111222,11111222,99999999' 
WAVCIS,ioos:station:WAVCIS:CSI15:1,2012-11-06T07:00:00Z,28.8332,-90.8320,10.0,6.075,318.0,,'11111222,11111222,99999999' 
WAVCIS,ioos:station:WAVCIS:CSI15:1,2012-11-06T08:00:00Z,28.8332,-90.8320,10.0,8.01,330.0,,'11111222,11111222,99999999' 
WAVCIS,ioos:station:WAVCIS:CSI15:1,2012-11-06T09:00:00Z,28.8332,-90.8320,10.0,9.53,333.0,,'11111222,11111222,99999999' 
WAVCIS,ioos:station:WAVCIS:CSI15:1,2012-11-06T10:00:00Z,28.8332,-90.8320,10.0,9.83,332.0,,'11111222,11111222,99999999' 
WAVCIS,ioos:station:WAVCIS:CSI15:1,2012-11-06T11:00:00Z,28.8332,-90.8320,10.0,9.21,335.0,,'11111222,11111222,99999999' 
WAVCIS,ioos:station:WAVCIS:CSI15:1,2012-11-06T12:00:00Z,28.8332,-90.8320,10.0,7.68,332.0,,'11111222,11111222,99999999' 
WAVCIS,ioos:station:WAVCIS:CSI15:1,2012-11-06T13:00:00Z,28.8332,-90.8320,10.0,7.64,330.0,,'11111222,11111222,99999999' 
WAVCIS,ioos:station:WAVCIS:CSI15:1,2012-11-06T14:00:00Z,28.8332,-90.8320,10.0,5.387,344.0,,'11111222,11111222,99999999' 
WAVCIS,ioos:station:WAVCIS:CSI15:1,2012-11-06T15:00:00Z,28.8332,-90.8320,10.0,4.232,355.0,,'11111222,11111222,99999999' 
WAVCIS,ioos:station:WAVCIS:CSI15:1,2012-11-06T16:00:00Z,28.8332,-90.8320,10.0,3.378,328.0,,'11111222,11111222,99999999' 
WAVCIS,ioos:station:WAVCIS:CSI15:1,2012-11-06T17:00:00Z,28.8332,-90.8320,10.0,5.738,314.0,,'11111222,11111222,99999999' 
WAVCIS,ioos:station:WAVCIS:CSI15:1,2012-11-06T18:00:00Z,28.8332,-90.8320,10.0,5.865,315.0,,'11111222,11111222,99999999' 
WAVCIS,ioos:station:WAVCIS:CSI15:1,2012-11-06T19:00:00Z,28.8332,-90.8320,10.0,5.129,309.0,,'11111222,11111222,99999999' 
WAVCIS,ioos:station:WAVCIS:CSI15:1,2012-11-06T20:00:00Z,28.8332,-90.8320,10.0,5.673,301.0,,'11111222,11111222,99999999' 
WAVCIS,ioos:station:WAVCIS:CSI15:1,2012-11-06T21:00:00Z,28.8332,-90.8320,10.0,8.08,318.0,,'11111222,11111222,99999999' 
WAVCIS,ioos:station:WAVCIS:CSI15:1,2012-11-06T22:00:00Z,28.8332,-90.8320,10.0,7.39,326.0,,'11111222,11111222,99999999' 
WAVCIS,ioos:station:WAVCIS:CSI15:1,2012-11-06T23:00:00Z,28.8332,-90.8320,10.0,6.417,315.0,,'11111222,11111222,99999999' 
WAVCIS,ioos:station:WAVCIS:CSI15:1,2012-11-07T00:00:00Z,28.8332,-90.8320,10.0,7.4,315.0,,'11111222,11111222,99999999' 
WAVCIS,ioos:station:WAVCIS:CSI15:1,2012-11-07T01:00:00Z,28.8332,-90.8320,10.0,5.429,331.0,,'11111222,11111222,99999999' 
WAVCIS,ioos:station:WAVCIS:CSI15:1,2012-11-07T02:00:00Z,28.8332,-90.8320,10.0,6.868,340.0,,'11111222,11111222,99999999' 
WAVCIS,ioos:station:WAVCIS:CSI15:1,2012-11-07T03:00:00Z,28.8332,-90.8320,10.0,6.25,344.0,,'11111222,11111222,99999999' 
WAVCIS,ioos:station:WAVCIS:CSI15:1,2012-11-07T04:00:00Z,28.8332,-90.8320,10.0,6.895,337.0,,'11111222,11111222,99999999' 
WAVCIS,ioos:station:WAVCIS:CSI15:1,2012-11-07T05:00:00Z,28.8332,-90.8320,10.0,7.23,338.0,,'11111222,11111222,99999999' 
WAVCIS,ioos:station:WAVCIS:CSI15:1,2012-11-07T06:00:00Z,28.8332,-90.8320,10.0,6.063,339.0,,'11111222,11111222,99999999' 
WAVCIS,ioos:station:WAVCIS:CSI15:1,2012-11-07T07:00:00Z,28.8332,-90.8320,10.0,7.6,336.0,,'11111222,11111222,99999999' 
WAVCIS,ioos:station:WAVCIS:CSI15:1,2012-11-07T08:00:00Z,28.8332,-90.8320,10.0,6.271,339.0,,'11111222,11111222,99999999' 
WAVCIS,ioos:station:WAVCIS:CSI15:1,2012-11-07T09:00:00Z,28.8332,-90.8320,10.0,5.875,322.0,,'11111222,11111222,99999999' 
WAVCIS,ioos:station:WAVCIS:CSI15:1,2012-11-07T10:00:00Z,28.8332,-90.8320,10.0,6.105,320.0,,'11111222,11111222,99999999' 
WAVCIS,ioos:station:WAVCIS:CSI15:1,2012-11-07T11:00:00Z,28.8332,-90.8320,10.0,4.808,311.0,,'11111222,11111222,99999999' 
WAVCIS,ioos:station:WAVCIS:CSI15:1,2012-11-07T12:00:00Z,28.8332,-90.8320,10.0,4.473,314.0,,'11111222,11111222,99999999' 
WAVCIS,ioos:station:WAVCIS:CSI15:1,2012-11-07T13:00:00Z,28.8332,-90.8320,10.0,5.705,308.0,,'11111222,11111222,99999999' 
WAVCIS,ioos:station:WAVCIS:CSI15:1,2012-11-07T14:00:00Z,28.8332,-90.8320,10.0,7.09,311.0,,'11111222,11111222,99999999' 
WAVCIS,ioos:station:WAVCIS:CSI15:1,2012-11-07T15:00:00Z,28.8332,-90.8320,10.0,8.14,318.0,,'11111222,11111222,99999999' 
WAVCIS,ioos:station:WAVCIS:CSI15:1,2012-11-07T16:00:00Z,28.8332,-90.8320,10.0,7.51,320.0,,'11111222,11111222,99999999' 
WAVCIS,ioos:station:WAVCIS:CSI15:1,2012-11-07T17:00:00Z,28.8332,-90.8320,10.0,5.503,302.0,,'11111222,11111222,99999999' 
WAVCIS,ioos:station:WAVCIS:CSI15:1,2012-11-07T18:00:00Z,28.8332,-90.8320,10.0,3.924,276.0,,'11111222,11111222,99999999' 
WAVCIS,ioos:station:WAVCIS:CSI15:1,2012-11-07T19:00:00Z,28.8332,-90.8320,10.0,5.206,253.0,,'11111222,11111222,99999999' 
WAVCIS,ioos:station:WAVCIS:CSI15:1,2012-11-07T20:00:00Z,28.8332,-90.8320,10.0,7.11,261.0,,'11111222,11111222,99999999' 
WAVCIS,ioos:station:WAVCIS:CSI15:1,2012-11-07T21:00:00Z,28.8332,-90.8320,10.0,7.95,269.0,,'11111222,11111222,99999999' 
WAVCIS,ioos:station:WAVCIS:CSI15:1,2012-11-07T22:00:00Z,28.8332,-90.8320,10.0,8.34,266.0,,'11111222,11111222,99999999' 
WAVCIS,ioos:station:WAVCIS:CSI15:1,2012-11-07T23:00:00Z,28.8332,-90.8320,10.0,8.88,266.0,,'11111222,11111222,99999999' 
WAVCIS,ioos:station:WAVCIS:CSI15:1,2012-11-08T00:00:00Z,28.8332,-90.8320,10.0,7.39,269.0,,'11111222,11111222,99999999' 
WAVCIS,ioos:station:WAVCIS:CSI15:1,2012-11-08T01:00:00Z,28.8332,-90.8320,10.0,8.0,277.0,,'11111222,11111222,99999999' 
WAVCIS,ioos:station:WAVCIS:CSI15:1,2012-11-08T02:00:00Z,28.8332,-90.8320,10.0,8.8,314.0,,'11111222,11111222,99999999' 
WAVCIS,ioos:station:WAVCIS:CSI15:1,2012-11-08T03:00:00Z,28.8332,-90.8320,10.0,9.24,347.0,,'11111222,11111222,99999999' 
WAVCIS,ioos:station:WAVCIS:CSI15:1,2012-11-08T04:00:00Z,28.8332,-90.8320,10.0,9.05,353.0,,'11111222,11111222,99999999' 
WAVCIS,ioos:station:WAVCIS:CSI15:1,2012-11-08T05:00:00Z,28.8332,-90.8320,10.0,9.81,1.0,,'11111222,11111222,99999999' 
WAVCIS,ioos:station:WAVCIS:CSI15:1,2012-11-08T06:00:00Z,28.8332,-90.8320,10.0,10.35,7.0,,'11111222,11111222,99999999' 
WAVCIS,ioos:station:WAVCIS:CSI15:1,2012-11-08T07:00:00Z,28.8332,-90.8320,10.0,10.36,14.0,,'11111222,11111222,99999999' 
WAVCIS,ioos:station:WAVCIS:CSI15:1,2012-11-08T08:00:00Z,28.8332,-90.8320,10.0,10.62,23.0,,'11111222,11111222,99999999' 
WAVCIS,ioos:station:WAVCIS:CSI15:1,2012-11-08T09:00:00Z,28.8332,-90.8320,10.0,8.85,22.0,,'11111222,11111222,99999999' 
WAVCIS,ioos:station:WAVCIS:CSI15:1,2012-11-08T10:00:00Z,28.8332,-90.8320,10.0,8.21,27.0,,'11111222,11111222,99999999' 
WAVCIS,ioos:station:WAVCIS:CSI15:1,2012-11-08T11:00:00Z,28.8332,-90.8320,10.0,7.61,27.0,,'11111222,11111222,99999999' 
WAVCIS,ioos:station:WAVCIS:CSI15:1,2012-11-08T12:00:00Z,28.8332,-90.8320,10.0,8.17,32.0,,'11111222,11111222,99999999' 
WAVCIS,ioos:station:WAVCIS:CSI15:1,2012-11-08T13:00:00Z,28.8332,-90.8320,10.0,6.307,27.0,,'11111222,11111222,99999999' 
WAVCIS,ioos:station:WAVCIS:CSI15:1,2012-11-08T14:00:00Z,28.8332,-90.8320,10.0,6.497,15.0,,'11111222,11111222,99999999' 
WAVCIS,ioos:station:WAVCIS:CSI15:1,2012-11-08T15:00:00Z,28.8332,-90.8320,10.0,6.156,19.0,,'11111222,11111222,99999999' 
WAVCIS,ioos:station:WAVCIS:CSI15:1,2012-11-08T16:00:00Z,28.8332,-90.8320,10.0,6.186,23.0,,'11111222,11111222,99999999' 
WAVCIS,ioos:station:WAVCIS:CSI15:1,2012-11-08T17:00:00Z,28.8332,-90.8320,10.0,5.697,15.0,,'11111222,11111222,99999999' 
WAVCIS,ioos:station:WAVCIS:CSI15:1,2012-11-08T18:00:00Z,28.8332,-90.8320,10.0,5.524,19.0,,'11111222,11111222,99999999' 
WAVCIS,ioos:station:WAVCIS:CSI15:1,2012-11-08T19:00:00Z,28.8332,-90.8320,10.0,5.283,22.0,,'11111222,11111222,99999999' 
WAVCIS,ioos:station:WAVCIS:CSI15:1,2012-11-08T20:00:00Z,28.8332,-90.8320,10.0,5.216,24.0,,'11111222,11111222,99999999' 
WAVCIS,ioos:station:WAVCIS:CSI15:1,2012-11-08T21:00:00Z,28.8332,-90.8320,10.0,5.06,35.0,,'11111222,11111222,99999999' 
WAVCIS,ioos:station:WAVCIS:CSI15:1,2012-11-08T22:00:00Z,28.8332,-90.8320,10.0,5.576,38.0,,'11111222,11111222,99999999' 
WAVCIS,ioos:station:WAVCIS:CSI15:1,2012-11-08T23:00:00Z,28.8332,-90.8320,10.0,6.388,47.0,,'11111222,11111222,99999999' 
WAVCIS,ioos:station:WAVCIS:CSI15:1,2012-11-09T00:00:00Z,28.8332,-90.8320,10.0,5.8,48.0,,'11111222,11111222,99999999' 
WAVCIS,ioos:station:WAVCIS:CSI15:1,2012-11-09T01:00:00Z,28.8332,-90.8320,10.0,5.802,48.0,,'11111222,11111222,99999999' 
WAVCIS,ioos:station:WAVCIS:CSI15:1,2012-11-09T02:00:00Z,28.8332,-90.8320,10.0,6.496,61.0,,'11111222,11111222,99999999' 
WAVCIS,ioos:station:WAVCIS:CSI15:1,2012-11-09T03:00:00Z,28.8332,-90.8320,10.0,5.762,47.0,,'11111222,11111222,99999999' 
WAVCIS,ioos:station:WAVCIS:CSI15:1,2012-11-09T04:00:00Z,28.8332,-90.8320,10.0,5.251,45.0,,'11111222,11111222,99999999' 
WAVCIS,ioos:station:WAVCIS:CSI15:1,2012-11-09T05:00:00Z,28.8332,-90.8320,10.0,4.4,70.0,,'11111222,11111222,99999999' 